EW0761 Weather Reports


Display with metric or nautical units.
time (UTC)temp
F
wind
direction
speed
MPH
gust
MPH
rain 1hr
in
rain 24hr
in
rain mn
in
humidity
%
barometer
mb
20190219102531 20 247 1.0 8.0 0.00 0.01 0.00 70 1031.3
20190219101631 20 248 1.0 4.0 0.00 0.01 0.00 70 1031.4
20190219100731 20 246 1.0 6.0 0.00 0.01 0.00 70 1031.1
20190219095831 20 246 1.0 6.0 0.00 0.01 0.00 69 1031.0
20190219094931 20 254 2.0 9.0 0.00 0.01 0.00 69 1030.8
20190219094031 20 257 2.0 9.0 0.00 0.01 0.00 69 1030.8
20190219093131 20 243 2.0 7.0 0.00 0.01 0.00 68 1030.5
20190219092231 20 248 1.0 8.0 0.00 0.01 0.00 68 1030.5
20190219091331 20 253 1.0 8.0 0.00 0.01 0.00 68 1030.3
20190219090431 21 240 1.0 9.0 0.00 0.01 0.00 67 1030.3
20190219085531 21 242 2.0 9.0 0.00 0.01 0.00 67 1030.4
20190219084631 21 238 1.0 6.0 0.00 0.01 0.00 66 1030.4
20190219083731 21 245 3.0 10.0 0.00 0.01 0.00 66 1030.4
20190219082831 21 251 2.0 8.0 0.00 0.01 0.00 66 1030.0
20190219081931 21 264 2.0 8.0 0.00 0.01 0.00 66 1030.0
20190219081031 21 246 3.0 11.0 0.00 0.01 0.00 67 1030.1
20190219080131 21 258 2.0 7.0 0.00 0.01 0.00 67 1030.2
20190219075231 21 245 2.0 9.0 0.00 0.01 0.00 67 1030.3
20190219074331 21 251 1.0 8.0 0.00 0.01 0.00 67 1030.3
20190219073431 21 256 2.0 9.0 0.00 0.01 0.00 67 1030.1
20190219072531 22 258 2.0 9.0 0.00 0.01 0.00 66 1030.0
20190219071631 22 251 2.0 9.0 0.00 0.01 0.00 66 1029.6
20190219070731 22 263 2.0 7.0 0.00 0.01 0.00 65 1029.6
20190219065831 22 267 3.0 10.0 0.00 0.01 0.00 65 1029.3
20190219064931 22 258 4.0 12.0 0.00 0.01 0.00 65 1029.3
20190219064031 22 270 2.0 7.0 0.00 0.01 0.00 65 1029.2
20190219063131 22 242 3.0 15.0 0.00 0.01 0.00 66 1029.2
20190219062231 22 251 2.0 15.0 0.00 0.01 0.00 68 1029.0
20190219061331 22 252 2.0 7.0 0.00 0.01 0.00 70 1028.9
20190219060431 22 262 1.0 7.0 0.00 0.01 0.00 70 1028.8
20190219055531 22 260 2.0 8.0 0.00 0.01 0.00 70 1028.4
20190219054631 23 265 2.0 13.0 0.00 0.01 0.00 70 1028.1
20190219053731 23 264 2.0 13.0 0.00 0.01 0.00 70 1027.8
20190219052831 23 257 2.0 10.0 0.00 0.01 0.00 71 1027.8
20190219051931 23 257 2.0 9.0 0.00 0.01 0.00 71 1027.6
20190219051031 23 255 2.0 8.0 0.00 0.01 0.00 71 1027.4
20190219050131 23 257 2.0 7.0 0.00 0.01 0.00 71 1027.3
20190219045231 23 255 3.0 11.0 0.00 0.01 0.01 71 1027.2
20190219044331 23 263 3.0 9.0 0.00 0.01 0.01 71 1027.2
20190219043431 23 269 2.0 8.0 0.00 0.01 0.01 72 1027.3
20190219042531 24 258 2.0 10.0 0.00 0.01 0.01 71 1027.3
20190219041631 24 236 1.0 4.0 0.00 0.01 0.01 71 1027.4
20190219040731 24 264 1.0 7.0 0.00 0.01 0.01 71 1027.1
20190219035831 24 255 0.0 1.0 0.00 0.01 0.01 71 1026.9
20190219034931 24 249 1.0 9.0 0.00 0.01 0.01 70 1026.8
20190219034031 24 249 1.0 8.0 0.00 0.01 0.01 70 1026.5
20190219033131 24 251 1.0 12.0 0.00 0.01 0.01 69 1026.3
20190219032231 25 259 3.0 12.0 0.00 0.01 0.01 69 1025.9
20190219031331 25 256 3.0 12.0 0.00 0.01 0.01 69 1025.9
20190219030431 25 243 3.0 8.0 0.00 0.01 0.01 69 1025.7
20190219025531 25 253 2.0 13.0 0.00 0.01 0.01 68 1025.5
20190219024631 25 257 2.0 13.0 0.00 0.01 0.01 68 1025.2
20190219023731 25 263 3.0 11.0 0.00 0.01 0.01 68 1024.9
20190219022831 26 243 5.0 15.0 0.00 0.01 0.01 67 1024.5
20190219021931 26 248 3.0 12.0 0.00 0.01 0.01 67 1024.6
20190219021031 26 250 2.0 7.0 0.00 0.01 0.01 67 1024.5
20190219020131 26 245 2.0 8.0 0.00 0.01 0.01 67 1024.1
20190219015231 26 248 1.0 10.0 0.00 0.01 0.01 68 1024.1
20190219014331 26 260 1.0 10.0 0.00 0.01 0.01 69 1023.8
20190219013431 27 262 1.0 6.0 0.00 0.01 0.01 70 1023.6
20190219012531 27 268 1.0 7.0 0.00 0.01 0.01 69 1023.4
20190219011632 27 259 2.0 7.0 0.00 0.01 0.01 69 1023.4
20190219010731 27 254 1.0 8.0 0.00 0.01 0.01 69 1023.1
20190219005831 27 252 2.0 6.0 0.00 0.01 0.01 68 1022.9
20190219004931 27 259 2.0 12.0 0.00 0.01 0.01 67 1022.8
20190219004031 28 246 3.0 12.0 0.00 0.01 0.01 68 1022.6
20190219003131 28 244 3.0 12.0 0.00 0.01 0.01 67 1022.5
20190219002232 28 262 3.0 10.0 0.00 0.01 0.01 66 1022.2
20190219001331 28 257 3.0 13.0 0.00 0.01 0.01 67 1021.9
20190219000431 29 255 3.0 13.0 0.00 0.01 0.01 67 1021.6
20190218235531 29 252 3.0 12.0 0.00 0.01 0.01 67 1021.4
20190218234631 29 256 2.0 8.0 0.00 0.01 0.01 67 1021.2
20190218233731 30 271 2.0 7.0 0.00 0.01 0.01 67 1021.0
20190218232831 30 257 1.0 9.0 0.00 0.01 0.01 67 1020.8
20190218231931 30 265 1.0 5.0 0.00 0.01 0.01 68 1020.6
20190218231031 31 256 3.0 12.0 0.00 0.01 0.01 68 1020.1
20190218230131 31 248 4.0 13.0 0.00 0.01 0.01 67 1019.7
20190218225231 31 247 3.0 12.0 0.00 0.01 0.01 67 1019.4
20190218224331 32 251 2.0 7.0 0.00 0.01 0.01 67 1019.1
20190218223431 32 256 2.0 9.0 0.00 0.01 0.01 67 1018.8
20190218222531 32 244 3.0 9.0 0.00 0.01 0.01 66 1018.4
20190218221631 32 251 2.0 10.0 0.00 0.01 0.01 66 1018.1
20190218220731 33 224 4.0 15.0 0.00 0.01 0.01 66 1017.7
20190218215831 33 238 4.0 15.0 0.00 0.01 0.01 66 1017.3
20190218214931 33 246 5.0 16.0 0.00 0.01 0.01 66 1017.0
20190218214031 33 252 5.0 16.0 0.00 0.01 0.01 65 1016.7
20190218213131 34 252 3.0 12.0 0.00 0.01 0.01 66 1016.5
20190218212231 35 244 5.0 18.0 0.00 0.01 0.01 66 1016.2
20190218211331 35 247 4.0 18.0 0.00 0.01 0.01 67 1015.9
20190218210431 35 247 5.0 20.0 0.00 0.01 0.01 67 1015.6
20190218205531 35 257 4.0 14.0 0.00 0.01 0.01 70 1015.1
20190218204631 36 236 6.0 16.0 0.00 0.01 0.01 69 1014.9
20190218203731 36 256 4.0 10.0 0.00 0.01 0.01 71 1014.6
20190218202831 36 251 5.0 14.0 0.00 0.01 0.01 74 1014.1
20190218201931 36 246 5.0 14.0 0.00 0.01 0.01 77 1013.8
20190218201031 35 249 6.0 15.0 0.00 0.01 0.01 77 1013.6
20190218200131 35 247 4.0 16.0 0.00 0.01 0.01 82 1013.4
20190218195231 36 252 5.0 12.0 0.00 0.01 0.01 82 1013.2
20190218194331 36 248 7.0 17.0 0.00 0.01 0.01 78 1013.2
20190218193431 37 237 6.0 16.0 0.00 0.01 0.01 77 1012.8
20190218192531 37 250 7.0 18.0 0.00 0.01 0.01 77 1012.5
20190218191631 38 236 7.0 17.0 0.00 0.01 0.01 76 1012.4
20190218190731 38 244 6.0 19.0 0.00 0.01 0.01 78 1012.2
20190218185831 38 254 6.0 19.0 0.00 0.01 0.01 77 1012.1
20190218184931 38 248 5.0 13.0 0.00 0.01 0.01 81 1011.9
20190218184031 37 246 6.0 15.0 0.00 0.01 0.01 81 1011.8
20190218183131 37 236 5.0 18.0 0.00 0.01 0.01 83 1011.7
20190218182231 37 240 5.0 15.0 0.00 0.01 0.01 85 1011.4
20190218181331 37 242 6.0 16.0 0.01 0.01 0.01 85 1011.4
20190218180431 36 248 7.0 20.0 0.01 0.01 0.01 86 1011.3
20190218175531 36 265 7.0 20.0 0.01 0.01 0.01 88 1011.4
20190218174631 36 234 3.0 10.0 0.01 0.01 0.01 92 1011.3
20190218173731 36 241 3.0 11.0 0.01 0.01 0.01 93 1011.1
20190218172831 35 246 3.0 10.0 0.01 0.01 0.01 93 1011.0
20190218171931 35 253 2.0 7.0 0.01 0.01 0.01 93 1011.1
20190218171031 35 242 1.0 5.0 0.00 0.00 0.00 93 1011.1
20190218170131 34 245 1.0 4.0 0.00 0.00 0.00 93 1011.1
20190218165231 34 245 1.0 6.0 0.00 0.00 0.00 93 1011.0
20190218164332 34 262 1.0 3.0 0.00 0.00 0.00 93 1011.0
20190218163431 34 261 0.0 2.0 0.00 0.00 0.00 93 1010.8
20190218162531 34 263 0.0 4.0 0.00 0.00 0.00 93 1010.9
20190218161631 34 236 1.0 6.0 0.00 0.00 0.00 93 1010.9
20190218160731 34 236 1.0 6.0 0.00 0.00 0.00 93 1010.8
20190218155831 34 232 1.0 4.0 0.00 0.00 0.00 93 1010.7
20190218154931 34 245 0.0 3.0 0.00 0.00 0.00 93 1010.4
20190218154031 34 229 1.0 4.0 0.00 0.00 0.00 93 1010.2
20190218153131 34 247 0.0 2.0 0.00 0.00 0.00 93 1010.2
20190218152231 34 232 0.0 2.0 0.00 0.00 0.00 93 1010.2
20190218151331 33 216 1.0 3.0 0.00 0.00 0.00 93 1009.9
20190218150431 33 230 1.0 6.0 0.00 0.00 0.00 93 1010.0
20190218145531 33 217 1.0 5.0 0.00 0.00 0.00 93 1010.1
20190218144631 33 228 1.0 3.0 0.00 0.00 0.00 93 1009.9
20190218143731 33 233 0.0 3.0 0.00 0.00 0.00 93 1009.8
20190218142831 33 233 0.0 2.0 0.00 0.00 0.00 93 1009.7
20190218141931 33 236 0.0 2.0 0.00 0.00 0.00 93 1009.6
20190218141031 32 223 0.0 1.0 0.00 0.00 0.00 93 1009.5
20190218140131 32 224 0.0 2.0 0.00 0.00 0.00 93 1009.3
20190218135231 32 242 0.0 2.0 0.00 0.00 0.00 93 1009.2
20190218134331 32 0 0.0 0.0 0.00 0.00 0.00 93 1009.2
20190218133431 32 0 0.0 0.0 0.00 0.00 0.00 93 1009.0
20190218132531 32 0 0.0 0.0 0.00 0.00 0.00 93 1009.0
20190218131631 32 0 0.0 0.0 0.00 0.00 0.00 93 1008.7
20190218130731 32 0 0.0 0.0 0.00 0.00 0.00 93 1008.7
20190218125832 32 0 0.0 0.0 0.00 0.00 0.00 93 1008.7
20190218124931 32 0 0.0 0.0 0.00 0.00 0.00 93 1008.7
20190218124031 32 0 0.0 0.0 0.00 0.00 0.00 93 1008.7
20190218123131 32 0 0.0 0.0 0.00 0.00 0.00 93 1008.6
20190218122231 32 0 0.0 0.0 0.00 0.00 0.00 93 1008.2
20190218121331 32 0 0.0 0.0 0.00 0.00 0.00 93 1008.0
20190218120431 32 0 0.0 0.0 0.00 0.00 0.00 93 1008.0
20190218115531 32 0 0.0 0.0 0.00 0.00 0.00 93 1007.9
20190218114631 32 0 0.0 1.0 0.00 0.00 0.00 93 1007.9
20190218113731 32 0 0.0 0.0 0.00 0.00 0.00 93 1008.4
20190218112831 32 0 0.0 0.0 0.00 0.00 0.00 93 1008.7
20190218111931 32 0 0.0 0.0 0.00 0.00 0.00 93 1007.9
20190218111031 32 0 0.0 0.0 0.00 0.00 0.00 93 1008.5
20190218110131 32 0 0.0 0.0 0.00 0.00 0.00 93 1008.3
20190218105231 32 0 0.0 1.0 0.00 0.00 0.00 93 1007.8
20190218104331 32 0 0.0 0.0 0.00 0.00 0.00 93 1007.7
20190218103431 32 26 0.0 1.0 0.00 0.00 0.00 93 1007.9